Location: Archemont
(49.1579°N, 1.7598°E)
Time: 10:35:50
(UTC+00:00)

Okean O Rocket - Pass Details

Date: 03 February 2023
Orbit: 620 x 643 km, 98.1° (Epoch: 29 March)

Event Time Altitude Azimuth Distance (km) Brightness Sun altitude
Rises 19:14:44 0° 175° (S) 2,908 4.9 -23.4°
Reaches altitude 10° 19:16:57 10° 179° (S) 2,009 4.1 -23.8°
Maximum altitude 19:21:16 59° 258° (WSW) 740 2.1 -24.5°
Drops below altitude 10° 19:25:39 10° 339° (NNW) 2,040 4.5 -25.2°
Sets 19:27:55 0° 343° (NNW) 2,958 5.3 -25.6°
